Location: Pl�tzky
(52.0521°N, 11.8020°E)
Time: 23:50:26
(UTC+00:00)

USA 229 - Pass Details

Date: 24 February 2020
Orbit: 986 x 1226 km, 63.4° (Epoch: 26 March)

Event Time Altitude Azimuth Distance (km) Brightness Sun altitude
Rises 17:40:54 0° 220° (SW) 3,715 7.2 -9.7°
Reaches altitude 10° 17:43:26 10° 220° (SW) 2,788 6.5 -10.1°
Maximum altitude 17:50:00 84° 133° (SE) 1,059 3.7 -11.1°
Drops below altitude 10° 17:56:59 10° 47° (NE) 2,953 5.6 -12.2°
Enters shadow 17:58:35 - 46° (NE) 3,538 6.0 -12.4°
